Roosevelt Roads, PR

11:19 PM AST on July 20, 2017 (GMT -0400)
Roosevelt Roads Ns

Weather History for TJNR - March, 2014

Change the Weather History Date:

Thursday, March 27, 2014

  Actual Average Record
Temperature  
Mean Temperature 82 °F -  
Max Temperature 87 °F 80 °F 88 °F (2017)
Min Temperature 77 °F 70 °F 46 °F (1997)
Cooling Degree Days 17    
Growing Degree Days 32 (Base 50)    
Moisture  
Dew Point 70 °F    
Average Humidity 69    
Maximum Humidity 78    
Minimum Humidity 55    
Precipitation  
Precipitation 0.00 in - - ()
Sea Level Pressure  
Sea Level Pressure 30.12 in    
Wind  
Wind Speed 9 mph (ENE)    
Max Wind Speed 14 mph    
Max Gust Speed 20 mph    
Visibility 10 miles    
Events      
Averages and records for this station are not official NWS values.
T = Trace of Precipitation, MM = Missing Value Source: NWS Daily Summary

Daily Weather History Graph

Daily Weather History Graph

Search for Another Location

Airport or City:

Trip Planner

Search our weather history database for the weather conditions in past years. The results will help you decide how hot, cold, wet, or windy it might be!

Date:

Astronomy

Mar. 27, 2014 Rise Set
Actual Time 6:20 AM AST 6:35 PM AST
Civil Twilight 5:59 AM AST 6:56 PM AST
Nautical Twilight 5:33 AM AST 7:22 PM AST
Astronomical Twilight 5:08 AM AST 7:47 PM AST
Moon 3:41 AM AST (3/27) 3:42 PM AST (3/27)
Length of Visible Light 12h 57m
Length of Day
12h 14m
Waning Crescent, 13% of the Moon is Illuminated
Mar 27
Waning Crescent
Mar 30
New
Apr 7
First Quarter
Apr 15
Full
Apr 22
Last Quarter

Hourly Weather History & Observations

Time (AST) Temp. Heat Index Dew Point Humidity Pressure Visibility Wind Dir Wind Speed Gust Speed Precip Events Conditions
12:20 AM 78.8 °F - 69.8 °F 74% 30.12 in 10.0 mi ENE 6.9 mph - N/A   Mostly Cloudy
12:53 AM 79.0 °F - 69.1 °F 72% 30.11 in 10.0 mi ENE 6.9 mph - N/A   Mostly Cloudy
1:01 AM 77.0 °F - 69.8 °F 78% 30.10 in 10.0 mi ENE 8.1 mph - N/A   Scattered Clouds
1:53 AM 78.1 °F - 69.1 °F 74% 30.09 in 10.0 mi ENE 6.9 mph - N/A   Partly Cloudy
2:53 AM 78.1 °F - 69.1 °F 74% 30.07 in 10.0 mi ENE 10.4 mph - N/A   Partly Cloudy
3:53 AM 78.1 °F - 69.1 °F 74% 30.07 in 10.0 mi ENE 8.1 mph - N/A   Partly Cloudy
4:53 AM 78.1 °F - 69.1 °F 74% 30.08 in 10.0 mi ENE 8.1 mph - N/A   Clear
5:53 AM 78.1 °F - 70.0 °F 76% 30.10 in 10.0 mi East 6.9 mph - N/A   Mostly Cloudy
6:53 AM 79.0 °F - 70.0 °F 74% 30.13 in 10.0 mi ENE 5.8 mph - N/A   Clear
7:53 AM 80.1 °F 83.2 °F 70.0 °F 71% 30.15 in 10.0 mi East 9.2 mph - N/A   Mostly Cloudy
8:53 AM 82.0 °F 85.9 °F 70.0 °F 67% 30.17 in 10.0 mi ENE 10.4 mph - N/A   Scattered Clouds
9:53 AM 84.9 °F 88.8 °F 69.1 °F 59% 30.18 in 10.0 mi East 10.4 mph - N/A   Partly Cloudy
10:53 AM 84.9 °F 89.4 °F 70.0 °F 61% 30.18 in 10.0 mi ENE 9.2 mph - N/A   Clear
11:53 AM 84.9 °F 89.4 °F 70.0 °F 61% 30.16 in 10.0 mi ENE 11.5 mph - N/A   Clear
12:53 PM 87.1 °F 91.3 °F 69.1 °F 55% 30.14 in 10.0 mi ENE 13.8 mph 18.4 mph N/A   Clear
1:53 PM 84.9 °F 89.4 °F 70.0 °F 61% 30.12 in 10.0 mi ENE 10.4 mph - N/A   Partly Cloudy
2:53 PM 84.9 °F 89.4 °F 70.0 °F 61% 30.10 in 10.0 mi ENE 10.4 mph - N/A   Partly Cloudy
3:53 PM 82.9 °F 87.0 °F 70.0 °F 65% 30.09 in 10.0 mi ENE 9.2 mph - N/A   Mostly Cloudy
4:22 PM 80.6 °F 84.6 °F 71.6 °F 74% 30.09 in 10.0 mi East 8.1 mph - N/A   Overcast
4:37 PM 82.4 °F 86.3 °F 69.8 °F 66% 30.09 in 10.0 mi ENE 10.4 mph - N/A   Scattered Clouds
4:53 PM 82.0 °F 85.9 °F 70.0 °F 67% 30.09 in 10.0 mi NE 10.4 mph - N/A   Mostly Cloudy
5:53 PM 81.0 °F 84.1 °F 69.1 °F 67% 30.10 in 10.0 mi NE 10.4 mph - N/A   Mostly Cloudy
6:53 PM 79.0 °F - 70.0 °F 74% 30.11 in 10.0 mi NE 12.7 mph - N/A   Partly Cloudy
7:53 PM 79.0 °F - 70.0 °F 74% 30.13 in 10.0 mi ENE 10.4 mph 17.3 mph N/A   Partly Cloudy
8:53 PM 79.0 °F - 69.1 °F 72% 30.14 in 10.0 mi ENE 11.5 mph 19.6 mph N/A   Partly Cloudy
9:53 PM 80.1 °F 82.9 °F 69.1 °F 69% 30.16 in 10.0 mi ENE 11.5 mph 19.6 mph N/A   Scattered Clouds
10:53 PM 79.0 °F - 69.1 °F 72% 30.15 in 10.0 mi ENE 11.5 mph 19.6 mph N/A   Scattered Clouds
11:53 PM 79.0 °F - 66.9 °F 66% 30.13 in 10.0 mi ENE 12.7 mph 19.6 mph N/A   Partly Cloudy